Elwood, KS

9:34 PM CST on December 07, 2016 (GMT -0600)
Rosecrans Memorial

Weather History for KSTJ - August, 2012

Change the Weather History Date:

Wednesday, August 15, 2012

  Actual Average Record
Temperature  
Mean Temperature 73 °F 76 °F  
Max Temperature 92 °F 87 °F 108 °F (1936)
Min Temperature 53 °F 65 °F 47 °F (2004)
Degree Days  
Heating Degree Days 0 0  
Month to date heating degree days 0 0  
Since 1 June heating degree days 8 9  
Since 1 July heating degree days 0 1  
Cooling Degree Days 8 11  
Month to date cooling degree days 152 175  
Year to date cooling degree days 1322 929  
Since 1 June cooling degree days 1055 816  
Growing Degree Days 22 (Base 50)    
Moisture  
Dew Point 61 °F    
Average Humidity 67    
Maximum Humidity 93    
Minimum Humidity 41    
Precipitation  
Precipitation 0.00 in 0.13 in 3.29 in (1934)
Month to date precipitation 0.59 1.76  
Year to date precipitation 15.73 24.08  
Sea Level Pressure  
Sea Level Pressure 29.85 in    
Wind  
Wind Speed 6 mph (South)    
Max Wind Speed 17 mph    
Max Gust Speed 23 mph    
Visibility 10 miles    
Events      
T = Trace of Precipitation, MM = Missing Value Source: NWS Daily Summary

Daily Weather History Graph

Daily Weather History Graph

Search for Another Location

Airport or City:

Trip Planner

Search our weather history database for the weather conditions in past years. The results will help you decide how hot, cold, wet, or windy it might be!

Date:

Astronomy

Aug. 15, 2012 Rise Set
Actual Time 6:32 AM CDT 8:15 PM CDT
Civil Twilight 6:03 AM CDT 8:43 PM CDT
Nautical Twilight 5:28 AM CDT 9:18 PM CDT
Astronomical Twilight 4:50 AM CDT 9:55 PM CDT
Moon 4:29 AM CDT (8/15) 6:49 PM CDT (8/15)
Length of Visible Light 14h 40m
Length of Day
13h 43m
Waning Crescent, 4% of the Moon is Illuminated
Aug 15
Waning Crescent
Aug 17
New
Aug 24
First Quarter
Aug 31
Full
Sep 8
Last Quarter

Hourly Weather History & Observations

Time (CDT) Temp. Heat Index Dew Point Humidity Pressure Visibility Wind Dir Wind Speed Gust Speed Precip Events Conditions
12:53 AM 59.0 °F - 55.0 °F 87% 29.94 in 10.0 mi SSW 3.5 mph - N/A   Clear
1:53 AM 57.0 °F - 54.0 °F 89% 29.94 in 10.0 mi Calm Calm - N/A   Clear
2:53 AM 53.1 °F - 51.1 °F 93% 29.94 in 10.0 mi Calm Calm - N/A   Clear
3:53 AM 55.9 °F - 54.0 °F 93% 29.93 in 10.0 mi Calm Calm - N/A   Clear
4:53 AM 54.0 °F - 52.0 °F 93% 29.93 in 9.0 mi SE 3.5 mph - N/A   Clear
5:53 AM 55.9 °F - 53.1 °F 90% 29.92 in 9.0 mi SE 3.5 mph - N/A   Clear
6:53 AM 55.9 °F - 54.0 °F 93% 29.93 in 7.0 mi Calm Calm - N/A   Clear
7:53 AM 61.0 °F - 57.0 °F 87% 29.94 in 7.0 mi Calm Calm - N/A   Clear
8:53 AM 66.9 °F - 59.0 °F 76% 29.92 in 10.0 mi South 6.9 mph - N/A   Clear
9:53 AM 73.0 °F - 60.1 °F 64% 29.90 in 10.0 mi South 5.8 mph - N/A   Clear
10:53 AM 78.1 °F - 61.0 °F 56% 29.89 in 10.0 mi SSE 8.1 mph - N/A   Clear
11:53 AM 81.0 °F 81.7 °F 61.0 °F 50% 29.88 in 10.0 mi South 15.0 mph 19.6 mph N/A   Clear
12:53 PM 84.9 °F 85.9 °F 63.0 °F 48% 29.86 in 10.0 mi South 10.4 mph 18.4 mph N/A   Clear
1:53 PM 87.1 °F 88.3 °F 64.0 °F 46% 29.82 in 10.0 mi SSW 11.5 mph - N/A   Clear
2:53 PM 89.1 °F 90.0 °F 63.0 °F 42% 29.81 in 10.0 mi South 11.5 mph - N/A   Clear
3:53 PM 91.0 °F 92.6 °F 64.0 °F 41% 29.78 in 10.0 mi South 9.2 mph - N/A   Clear
4:53 PM 91.0 °F 93.8 °F 66.0 °F 44% 29.76 in 10.0 mi SSW 11.5 mph 18.4 mph N/A   Clear
5:53 PM 91.0 °F 93.0 °F 64.9 °F 42% 29.75 in 10.0 mi SSW 12.7 mph - N/A   Clear
6:53 PM 90.0 °F 92.4 °F 66.0 °F 45% 29.74 in 10.0 mi South 9.2 mph - N/A   Clear
7:53 PM 84.9 °F 87.1 °F 66.0 °F 53% 29.75 in 10.0 mi South 6.9 mph - N/A   Clear
8:53 PM 80.6 °F 82.7 °F 66.2 °F 61% 29.78 in 10.0 mi SSW 3.5 mph - N/A   Clear
9:53 PM 77.0 °F - 66.0 °F 69% 29.78 in 10.0 mi South 4.6 mph - N/A   Clear
10:53 PM 72.0 °F - 66.0 °F 81% 29.79 in 10.0 mi South 3.5 mph - N/A   Clear
11:53 PM 73.9 °F - 68.0 °F 82% 29.79 in 10.0 mi South 3.5 mph - N/A   Clear